| time (UTC) | temp F | wind direction | speed knots | gust knots | rain 1hr in | rain 24hr in | rain mn in | humidity % | barometer mb |
| 20260503235801 | 63 | -1 | 0.0 | 0.0 | 0.00 | 0.00 | 0.00 | 4 | 994.3 |
| 20260503235254 | 63 | -1 | 0.0 | 0.0 | 0.00 | 0.00 | 0.00 | 4 | 995.0 |
| 20260503234747 | 63 | -1 | 0.0 | 0.0 | 0.00 | 0.00 | 0.00 | 4 | 994.7 |
| 20260503234240 | 62 | -1 | 0.0 | 0.0 | 0.00 | 0.00 | 0.00 | 4 | 994.2 |
| 20260503233733 | 63 | -1 | 0.0 | 0.0 | 0.00 | 0.00 | 0.00 | 4 | 993.6 |
| 20260503233225 | 63 | -1 | 0.0 | 0.0 | 0.00 | 0.00 | 0.00 | 4 | 996.8 |
| 20260503232717 | 63 | -1 | 3.5 | 6.1 | 0.00 | 0.00 | 0.00 | 4 | 997.2 |
| 20260503232210 | 63 | -1 | 6.1 | 8.7 | 0.00 | 0.00 | 0.00 | 4 | 996.8 |
| 20260503231703 | 63 | -1 | 6.1 | 11.3 | 0.00 | 0.00 | 0.00 | 4 | 997.0 |
| 20260503231156 | 63 | -1 | 6.1 | 11.3 | 0.00 | 0.00 | 0.00 | 4 | 996.7 |
| 20260503230649 | 63 | -1 | 5.2 | 9.6 | 0.00 | 0.00 | 0.00 | 4 | 997.0 |
| 20260503230142 | 63 | -1 | 7.0 | 11.3 | 0.00 | 0.00 | 0.00 | 4 | 996.8 |
| 20260503225635 | 64 | -1 | 8.7 | 13.9 | 0.00 | 0.00 | 0.00 | 4 | 996.9 |
| 20260503225128 | 64 | -1 | 8.7 | 13.9 | 0.00 | 0.00 | 0.00 | 4 | 995.3 |
| 20260503224621 | 64 | -1 | 7.8 | 12.2 | 0.00 | 0.00 | 0.00 | 4 | 996.2 |
| 20260503224114 | 64 | -1 | 7.8 | 12.2 | 0.00 | 0.00 | 0.00 | 4 | 996.4 |
| 20260503223606 | 64 | -1 | 6.1 | 11.3 | 0.00 | 0.00 | 0.00 | 3 | 997.4 |
| 20260503223059 | 64 | -1 | 5.2 | 9.6 | 0.00 | 0.00 | 0.00 | 3 | 997.1 |
| 20260503222551 | 64 | -1 | 6.1 | 13.0 | 0.00 | 0.00 | 0.00 | 3 | 997.0 |
| 20260503222044 | 64 | -1 | 7.8 | 15.6 | 0.00 | 0.00 | 0.00 | 4 | 996.3 |
| 20260503221537 | 64 | -1 | 9.6 | 17.4 | 0.00 | 0.00 | 0.00 | 4 | 996.3 |
| 20260503221030 | 64 | -1 | 11.3 | 17.4 | 0.00 | 0.00 | 0.00 | 4 | 996.1 |
| 20260503220523 | 65 | -1 | 13.9 | 24.3 | 0.00 | 0.00 | 0.00 | 4 | 995.5 |
| 20260503220015 | 65 | -1 | 13.0 | 21.7 | 0.00 | 0.00 | 0.00 | 4 | 995.7 |
| 20260503215508 | 65 | -1 | 9.6 | 15.6 | 0.00 | 0.00 | 0.00 | 3 | 996.3 |
| 20260503215000 | 66 | -1 | 10.4 | 19.1 | 0.00 | 0.00 | 0.00 | 3 | 996.4 |
| 20260503214452 | 66 | -1 | 8.7 | 13.9 | 0.00 | 0.00 | 0.00 | 3 | 996.7 |
| 20260503213945 | 65 | -1 | 4.3 | 7.8 | 0.00 | 0.00 | 0.00 | 3 | 998.2 |
| 20260503213437 | 65 | -1 | 5.2 | 8.7 | 0.00 | 0.00 | 0.00 | 3 | 997.5 |
| 20260503212930 | 65 | -1 | 5.2 | 7.8 | 0.00 | 0.00 | 0.00 | 4 | 995.4 |
| 20260503212423 | 64 | -1 | 0.0 | 0.0 | 0.00 | 0.00 | 0.00 | 4 | 994.6 |
| 20260503211915 | 65 | -1 | 0.0 | 0.0 | 0.00 | 0.00 | 0.00 | 4 | 994.1 |
| 20260503211408 | 65 | -1 | 3.5 | 4.3 | 0.00 | 0.00 | 0.00 | 4 | 994.5 |
| 20260503210901 | 65 | -1 | 3.5 | 7.0 | 0.00 | 0.00 | 0.00 | 4 | 994.8 |
| 20260503210354 | 66 | -1 | 7.0 | 14.8 | 0.00 | 0.00 | 0.00 | 4 | 994.7 |
| 20260503205846 | 66 | -1 | 5.2 | 12.2 | 0.00 | 0.00 | 0.00 | 3 | 995.8 |
| 20260503205338 | 66 | -1 | 6.1 | 12.2 | 0.00 | 0.00 | 0.00 | 3 | 996.5 |
| 20260503204830 | 66 | -1 | 6.1 | 12.2 | 0.00 | 0.00 | 0.00 | 3 | 996.1 |
| 20260503204322 | 66 | -1 | 7.8 | 18.2 | 0.00 | 0.00 | 0.00 | 3 | 996.2 |
| 20260503203814 | 67 | -1 | 9.6 | 17.4 | 0.00 | 0.00 | 0.00 | 3 | 996.3 |
| 20260503203306 | 67 | -1 | 10.4 | 24.3 | 0.00 | 0.00 | 0.00 | 3 | 996.3 |
| 20260503202759 | 67 | -1 | 7.8 | 16.5 | 0.00 | 0.00 | 0.00 | 3 | 996.8 |
| 20260503202251 | 67 | -1 | 9.6 | 16.5 | 0.00 | 0.00 | 0.00 | 3 | 996.5 |
| 20260503201744 | 67 | -1 | 10.4 | 19.1 | 0.00 | 0.00 | 0.00 | 3 | 996.8 |
| 20260503201236 | 68 | -1 | 10.4 | 19.1 | 0.00 | 0.00 | 0.00 | 3 | 996.5 |
| 20260503200728 | 68 | -1 | 10.4 | 18.2 | 0.00 | 0.00 | 0.00 | 3 | 996.1 |
| 20260503200220 | 68 | -1 | 13.0 | 21.7 | 0.00 | 0.00 | 0.00 | 3 | 996.1 |
| 20260503195713 | 68 | -1 | 13.9 | 23.5 | 0.00 | 0.00 | 0.00 | 3 | 996.1 |
| 20260503195206 | 68 | -1 | 12.2 | 20.0 | 0.00 | 0.00 | 0.00 | 3 | 996.1 |
| 20260503194658 | 68 | -1 | 10.4 | 17.4 | 0.00 | 0.00 | 0.00 | 3 | 996.3 |
| 20260503194151 | 68 | -1 | 11.3 | 16.5 | 0.00 | 0.00 | 0.00 | 3 | 995.7 |
| 20260503193643 | 68 | -1 | 11.3 | 16.5 | 0.00 | 0.00 | 0.00 | 3 | 995.8 |
| 20260503193136 | 68 | -1 | 11.3 | 21.7 | 0.00 | 0.00 | 0.00 | 3 | 995.5 |
| 20260503192628 | 68 | -1 | 11.3 | 20.0 | 0.00 | 0.00 | 0.00 | 3 | 995.8 |
| 20260503192121 | 69 | -1 | 9.6 | 18.2 | 0.00 | 0.00 | 0.00 | 3 | 995.7 |
| 20260503191614 | 68 | -1 | 7.0 | 13.9 | 0.00 | 0.00 | 0.00 | 3 | 995.6 |
| 20260503191107 | 69 | -1 | 6.1 | 13.9 | 0.00 | 0.00 | 0.00 | 3 | 995.3 |
| 20260503190600 | 69 | -1 | 6.1 | 16.5 | 0.00 | 0.00 | 0.00 | 2 | 995.9 |
| 20260503190053 | 69 | -1 | 7.8 | 15.6 | 0.00 | 0.00 | 0.00 | 2 | 994.6 |
| 20260503185546 | 70 | -1 | 9.6 | 14.8 | 0.00 | 0.00 | 0.00 | 2 | 995.4 |
| 20260503185038 | 70 | -1 | 11.3 | 14.8 | 0.00 | 0.00 | 0.00 | 2 | 995.1 |
| 20260503184531 | 70 | -1 | 10.4 | 16.5 | 0.00 | 0.00 | 0.00 | 2 | 995.4 |
| 20260503184024 | 70 | -1 | 8.7 | 13.0 | 0.00 | 0.00 | 0.00 | 2 | 995.3 |
| 20260503183517 | 70 | -1 | 8.7 | 13.0 | 0.00 | 0.00 | 0.00 | 2 | 995.2 |
| 20260503183009 | 70 | -1 | 8.7 | 13.0 | 0.00 | 0.00 | 0.00 | 2 | 995.0 |
| 20260503182502 | 71 | -1 | 9.6 | 13.9 | 0.00 | 0.00 | 0.00 | 2 | 995.0 |
| 20260503181955 | 71 | -1 | 9.6 | 13.9 | 0.00 | 0.00 | 0.00 | 2 | 995.1 |
| 20260503181448 | 71 | -1 | 9.6 | 13.0 | 0.00 | 0.00 | 0.00 | 2 | 994.9 |
| 20260503180941 | 72 | -1 | 8.7 | 13.0 | 0.00 | 0.00 | 0.00 | 2 | 994.9 |
| 20260503180433 | 72 | -1 | 8.7 | 12.2 | 0.00 | 0.00 | 0.00 | 2 | 995.0 |
| 20260503175925 | 72 | -1 | 8.7 | 12.2 | 0.00 | 0.00 | 0.00 | 2 | 994.7 |
| 20260503175417 | 72 | -1 | 8.7 | 12.2 | 0.00 | 0.00 | 0.00 | 2 | 995.1 |
| 20260503174910 | 72 | -1 | 7.0 | 11.3 | 0.00 | 0.00 | 0.00 | 2 | 995.3 |
| 20260503174402 | 72 | -1 | 6.1 | 10.4 | 0.00 | 0.00 | 0.00 | 2 | 995.7 |
| 20260503173855 | 72 | -1 | 6.1 | 12.2 | 0.00 | 0.00 | 0.00 | 2 | 995.4 |
| 20260503173348 | 73 | -1 | 7.0 | 13.9 | 0.00 | 0.00 | 0.00 | 2 | 994.8 |
| 20260503172841 | 73 | -1 | 6.1 | 10.4 | 0.00 | 0.00 | 0.00 | 2 | 996.0 |
| 20260503172334 | 73 | -1 | 4.3 | 8.7 | 0.00 | 0.00 | 0.00 | 2 | 995.4 |
| 20260503171826 | 73 | -1 | 7.0 | 13.0 | 0.00 | 0.00 | 0.00 | 2 | 994.9 |
| 20260503171319 | 73 | -1 | 6.1 | 9.6 | 0.00 | 0.00 | 0.00 | 2 | 995.8 |
| 20260503170812 | 73 | -1 | 8.7 | 15.6 | 0.00 | 0.00 | 0.00 | 2 | 995.1 |
| 20260503170304 | 74 | -1 | 5.2 | 13.9 | 0.00 | 0.00 | 0.00 | 2 | 996.0 |
| 20260503160139 | 77 | -1 | 7.0 | 14.8 | 0.00 | 0.00 | 0.00 | 1 | 998.4 |
| 20260503150518 | 78 | -1 | 6.1 | 13.9 | 0.00 | 0.00 | 0.00 | 1 | 1000.2 |
| 20260503131236 | 76 | -1 | 7.0 | 13.9 | 0.00 | 0.00 | 0.00 | 2 | 999.9 |
| 20260503130728 | 77 | -1 | 7.0 | 13.0 | 0.00 | 0.00 | 0.00 | 2 | 1000.9 |
| 20260503130221 | 77 | -1 | 5.2 | 10.4 | 0.00 | 0.00 | 0.00 | 1 | 1003.0 |
| 20260503110429 | 75 | -1 | 7.0 | 13.0 | 0.00 | 0.00 | 0.00 | 2 | 1003.9 |
| 20260503100259 | 74 | -1 | 6.1 | 12.2 | 0.00 | 0.00 | 0.00 | 2 | 1004.6 |
| 20260503090132 | 72 | -1 | 4.3 | 7.0 | 0.00 | 0.00 | 0.00 | 2 | 1007.1 |
| 20260503081525 | 69 | -1 | 3.5 | 4.3 | 0.00 | 0.00 | 0.00 | 2 | 1006.8 |
| 20260503081019 | 67 | -1 | 0.0 | 0.0 | 0.00 | 0.00 | 0.00 | 3 | 1003.6 |
| 20260503080511 | 67 | -1 | 0.0 | 0.0 | 0.00 | 0.00 | 0.00 | 3 | 1003.0 |
| 20260503072918 | 63 | -1 | 0.0 | 0.0 | 0.00 | 0.00 | 0.00 | 3 | 1006.1 |
| 20260503072410 | 63 | -1 | 0.0 | 0.0 | 0.00 | 0.00 | 0.00 | 3 | 1004.8 |
| 20260503071902 | 62 | -1 | 0.0 | 0.0 | 0.00 | 0.00 | 0.00 | 3 | 1005.8 |
| 20260503071355 | 62 | -1 | 3.5 | 5.2 | 0.00 | 0.00 | 0.00 | 3 | 1005.7 |
| 20260503070848 | 62 | -1 | 3.5 | 5.2 | 0.00 | 0.00 | 0.00 | 3 | 1005.6 |
| 20260503070341 | 62 | -1 | 3.5 | 6.1 | 0.00 | 0.00 | 0.00 | 3 | 1005.0 |
| 20260503060211 | 60 | -1 | 0.0 | 0.0 | 0.00 | 0.00 | 0.00 | 4 | 1007.3 |
| 20260503054649 | 60 | -1 | 0.0 | 0.0 | 0.00 | 0.00 | 0.00 | 3 | 1006.7 |
| 20260503054142 | 60 | -1 | 0.0 | 0.0 | 0.00 | 0.00 | 0.00 | 4 | 1006.7 |
| 20260503053635 | 61 | -1 | 0.0 | 0.0 | 0.00 | 0.00 | 0.00 | 3 | 1007.3 |
| 20260503053128 | 62 | -1 | 0.0 | 0.0 | 0.00 | 0.00 | 0.00 | 3 | 1005.7 |
| 20260503052621 | 60 | -1 | 0.0 | 0.0 | 0.00 | 0.00 | 0.00 | 3 | 1005.0 |
| 20260503052114 | 60 | -1 | 0.0 | 0.0 | 0.00 | 0.00 | 0.00 | 3 | 1004.4 |
| 20260503051607 | 60 | -1 | 0.0 | 0.0 | 0.00 | 0.00 | 0.00 | 3 | 1005.5 |
| 20260503051100 | 60 | -1 | 0.0 | 0.0 | 0.00 | 0.00 | 0.00 | 3 | 1005.0 |
| 20260503050553 | 59 | -1 | 0.0 | 0.0 | 0.00 | 0.00 | 0.00 | 3 | 1004.4 |
| 20260503050046 | 57 | -1 | 0.0 | 0.0 | 0.00 | 0.00 | 0.00 | 3 | 1003.8 |
| 20260503045539 | 56 | -1 | 0.0 | 0.0 | 0.00 | 0.00 | 0.00 | 3 | 1001.7 |
| 20260503045032 | 56 | -1 | 0.0 | 0.0 | 0.00 | 0.00 | 0.00 | 3 | 1000.6 |
| 20260503044524 | 57 | -1 | 0.0 | 0.0 | 0.00 | 0.00 | 0.00 | 3 | 1000.2 |
| 20260503044017 | 58 | -1 | 0.0 | 0.0 | 0.00 | 0.00 | 0.00 | 3 | 1001.2 |
| 20260503043510 | 56 | -1 | 0.0 | 0.0 | 0.00 | 0.00 | 0.00 | 3 | 1000.8 |
| 20260503043003 | 55 | -1 | 0.0 | 0.0 | 0.00 | 0.00 | 0.00 | 4 | 999.6 |
| 20260503042456 | 54 | -1 | 0.0 | 0.0 | 0.00 | 0.00 | 0.00 | 4 | 999.8 |
| 20260503041949 | 54 | -1 | 0.0 | 0.0 | 0.00 | 0.00 | 0.00 | 4 | 998.8 |
| 20260503041442 | 54 | -1 | 0.0 | 0.0 | 0.00 | 0.00 | 0.00 | 4 | 998.9 |
| 20260503040935 | 54 | -1 | 0.0 | 0.0 | 0.00 | 0.00 | 0.00 | 4 | 998.5 |
| 20260503040428 | 54 | -1 | 0.0 | 0.0 | 0.00 | 0.00 | 0.00 | 4 | 998.9 |
| 20260503035921 | 54 | -1 | 0.0 | 0.0 | 0.00 | 0.00 | 0.00 | 4 | 997.4 |
| 20260503035414 | 55 | -1 | 0.0 | 0.0 | 0.00 | 0.00 | 0.00 | 4 | 997.1 |
| 20260503034907 | 54 | -1 | 0.0 | 0.0 | 0.00 | 0.00 | 0.00 | 4 | 996.9 |
| 20260503034400 | 54 | -1 | 0.0 | 0.0 | 0.00 | 0.00 | 0.00 | 4 | 996.5 |
| 20260503033853 | 54 | -1 | 0.0 | 0.0 | 0.00 | 0.00 | 0.00 | 4 | 996.9 |
| 20260503033346 | 54 | -1 | 0.0 | 0.0 | 0.00 | 0.00 | 0.00 | 4 | 997.1 |
| 20260503032838 | 54 | -1 | 0.0 | 0.0 | 0.00 | 0.00 | 0.00 | 4 | 996.9 |
| 20260503032331 | 54 | -1 | 0.0 | 0.0 | 0.00 | 0.00 | 0.00 | 4 | 995.9 |
| 20260503031823 | 53 | -1 | 0.0 | 0.0 | 0.00 | 0.00 | 0.00 | 4 | 996.0 |
| 20260503031316 | 53 | -1 | 0.0 | 0.0 | 0.00 | 0.00 | 0.00 | 4 | 996.5 |
| 20260503030809 | 53 | -1 | 0.0 | 0.0 | 0.00 | 0.00 | 0.00 | 4 | 996.6 |
| 20260503030303 | 53 | -1 | 0.0 | 0.0 | 0.00 | 0.00 | 0.00 | 4 | 996.0 |
| 20260503025755 | 53 | -1 | 0.0 | 0.0 | 0.00 | 0.00 | 0.00 | 4 | 996.7 |
| 20260503025248 | 54 | -1 | 0.0 | 0.0 | 0.00 | 0.00 | 0.00 | 4 | 996.8 |
| 20260503024741 | 54 | -1 | 0.0 | 0.0 | 0.00 | 0.00 | 0.00 | 4 | 997.2 |
| 20260503024234 | 54 | -1 | 0.0 | 0.0 | 0.00 | 0.00 | 0.00 | 4 | 996.3 |
| 20260503023727 | 55 | -1 | 0.0 | 0.0 | 0.00 | 0.00 | 0.00 | 4 | 996.9 |
| 20260503023220 | 55 | -1 | 0.0 | 0.0 | 0.00 | 0.00 | 0.00 | 4 | 997.3 |
| 20260503022713 | 55 | -1 | 0.0 | 0.0 | 0.00 | 0.00 | 0.00 | 4 | 997.1 |
| 20260503022205 | 56 | -1 | 0.0 | 0.0 | 0.00 | 0.00 | 0.00 | 4 | 998.0 |
| 20260503021658 | 57 | -1 | 0.0 | 0.0 | 0.00 | 0.00 | 0.00 | 4 | 996.3 |
| 20260503021150 | 57 | -1 | 0.0 | 0.0 | 0.00 | 0.00 | 0.00 | 4 | 996.2 |
| 20260503020642 | 57 | -1 | 0.0 | 0.0 | 0.00 | 0.00 | 0.00 | 4 | 996.7 |
| 20260503020135 | 57 | -1 | 0.0 | 0.0 | 0.00 | 0.00 | 0.00 | 4 | 996.9 |
| 20260503015628 | 58 | -1 | 0.0 | 0.0 | 0.00 | 0.00 | 0.00 | 4 | 996.3 |
| 20260503015120 | 58 | -1 | 0.0 | 0.0 | 0.00 | 0.00 | 0.00 | 4 | 996.5 |
| 20260503014613 | 58 | -1 | 0.0 | 0.0 | 0.00 | 0.00 | 0.00 | 4 | 996.2 |
| 20260503014106 | 58 | -1 | 0.0 | 0.0 | 0.00 | 0.00 | 0.00 | 4 | 996.7 |
| 20260503013559 | 57 | -1 | 0.0 | 0.0 | 0.00 | 0.00 | 0.00 | 3 | 998.6 |
| 20260503013052 | 57 | -1 | 5.2 | 8.7 | 0.00 | 0.00 | 0.00 | 4 | 997.1 |
| 20260503012545 | 57 | -1 | 0.0 | 0.0 | 0.00 | 0.00 | 0.00 | 4 | 995.5 |
| 20260503012038 | 56 | -1 | 0.0 | 0.0 | 0.00 | 0.00 | 0.00 | 4 | 996.2 |
| 20260503011531 | 57 | -1 | 0.0 | 0.0 | 0.00 | 0.00 | 0.00 | 3 | 997.7 |
| 20260503011024 | 58 | -1 | 0.0 | 0.0 | 0.00 | 0.00 | 0.00 | 3 | 997.8 |
| 20260503010517 | 58 | -1 | 0.0 | 0.0 | 0.00 | 0.00 | 0.00 | 3 | 998.0 |
| 20260503010010 | 58 | -1 | 0.0 | 0.0 | 0.00 | 0.00 | 0.00 | 3 | 997.2 |
| 20260503005503 | 58 | -1 | 0.0 | 0.0 | 0.00 | 0.00 | 0.00 | 3 | 997.8 |
| 20260503004956 | 58 | -1 | 0.0 | 0.0 | 0.00 | 0.00 | 0.00 | 3 | 999.8 |
| 20260503004449 | 58 | -1 | 0.0 | 0.0 | 0.00 | 0.00 | 0.00 | 3 | 1000.7 |
| 20260503003942 | 58 | -1 | 0.0 | 0.0 | 0.00 | 0.00 | 0.00 | 3 | 998.2 |
| 20260503003435 | 58 | -1 | 0.0 | 0.0 | 0.00 | 0.00 | 0.00 | 3 | 998.5 |
| 20260503002928 | 57 | -1 | 0.0 | 0.0 | 0.00 | 0.00 | 0.00 | 3 | 999.1 |
| 20260503002419 | 58 | -1 | 0.0 | 0.0 | 0.00 | 0.00 | 0.00 | 3 | 996.8 |
| 20260503001910 | 59 | -1 | 0.0 | 0.0 | 0.00 | 0.00 | 0.00 | 3 | 999.8 |
| 20260503001403 | 59 | -1 | 2.6 | 2.6 | 0.00 | 0.00 | 0.00 | 3 | 999.3 |
| 20260503000856 | 59 | -1 | 0.0 | 0.0 | 0.00 | 0.00 | 0.00 | 3 | 999.7 |
| 20260503000349 | 59 | -1 | 0.0 | 0.0 | 0.00 | 0.00 | 0.00 | 3 | 999.2 |